Location: Slidell
(30.2789°N, 89.7378°W)
Time: 09:46:17
(UTC-05:00)

Cosmos 2360 Rocket - Visible Passes

Search period start: 29 July 2014 00:00
Search period end: 08 August 2014 00:00
Orbit: 834 x 845 km, 71.0° (Epoch: 28 July)

Date Brightness Start Highest point End Pass type
(mag) Time Alt. Az. Time Alt. Az. Time Alt. Az.
29 Jul 2.1 21:47:24 10° NNW 21:53:04 80° ENE 21:54:30 52° SSE visible
30 Jul 2.1 21:31:50 10° NNW 21:37:30 74° ENE 21:39:38 39° SE visible
31 Jul 2.2 21:16:16 10° NNW 21:21:55 69° ENE 21:24:50 29° SE visible
31 Jul 4.7 23:03:42 10° W 23:05:12 11° W 23:06:38 10° WSW visible
01 Aug 2.2 21:00:43 10° NNW 21:06:20 64° ENE 21:10:05 21° SE visible
01 Aug 4.7 22:47:33 10° WNW 22:49:40 12° W 22:51:47 10° WSW visible
02 Aug 2.3 20:45:10 10° N 20:50:45 59° ENE 20:55:26 15° SE visible
02 Aug 4.7 22:31:34 10° WNW 22:34:08 13° W 22:36:42 10° SW visible
03 Aug 2.4 20:29:38 10° N 20:35:10 55° ENE 20:40:42 10° SE visible
03 Aug 4.6 22:15:40 10° WNW 22:18:36 14° W 22:21:32 10° SW visible
04 Aug 2.5 20:14:05 10° N 20:19:35 51° ENE 20:25:04 10° SE visible
04 Aug 4.6 21:59:49 10° WNW 22:03:04 16° W 22:06:18 10° SW visible
05 Aug 4.6 21:44:00 10° WNW 21:47:31 17° W 21:51:02 10° SW visible
06 Aug 4.6 21:28:13 10° WNW 21:31:59 18° W 21:35:44 10° SW visible
07 Aug 4.6 21:12:27 10° NW 21:16:26 20° W 21:20:25 10° SW visible
